Location: Spring Creek
(38.2870°N, 100.2160°W)
Time: 03:05:45
(UTC+00:00)

IRAS Rocket - Pass Details

Date: 08 May 2021
Orbit: 847 x 878 km, 100.1° (Epoch: 22 June)

Event Time Altitude Azimuth Distance (km) Brightness Sun altitude
Rises 10:49:57 0° 167° (SSE) 3,419 7.2 -8.9°
Reaches altitude 10° 10:52:18 10° 168° (SSE) 2,490 6.5 -8.5°
Maximum altitude 10:57:50 79° 255° (WSW) 886 4.2 -7.6°
Drops below altitude 10° 11:03:27 10° 342° (NNW) 2,526 6.8 -6.6°
Sets 11:05:51 0° 344° (NNW) 3,472 7.6 -6.2°
